Time,TemperatureF,DewpointF,PressureIn,WindDirection,WindDirectionDegrees,WindSpeedMPH,WindSpeedGustMPH,Humidity,HourlyPrecipIn,Conditions,Clouds,dailyrainin,SolarRadiationWatts/m^2,SoftwareType,DateUTC
2013-01-16 00:02:00,18.0,11.0,-100.00,South,186,5.0,8.0,75,0.00,,,0.00,0.000000,,2013-01-16 06:02:00,
2013-01-16 00:12:00,17.0,12.0,-100.00,South,187,4.0,7.0,79,0.00,,,0.00,0.000000,,2013-01-16 06:12:00,
2013-01-16 00:33:00,17.0,12.0,-100.00,South,187,4.0,7.0,79,0.00,,,0.00,0.000000,,2013-01-16 06:33:00,
2013-01-16 00:43:00,17.0,12.0,-100.00,South,187,4.0,7.0,79,0.00,,,0.00,0.000000,,2013-01-16 06:43:00,
2013-01-16 00:53:00,17.0,12.0,-100.00,South,187,4.0,7.0,79,0.00,,,0.00,0.000000,,2013-01-16 06:53:00,
2013-01-16 01:02:00,17.0,12.0,-100.00,South,187,4.0,7.0,79,0.00,,,0.00,0.000000,,2013-01-16 07:02:00,
2013-01-16 01:12:00,17.0,12.0,-100.00,SSW,206,5.0,9.0,80,0.00,,,0.00,0.000000,,2013-01-16 07:12:00,
2013-01-16 01:33:00,17.0,12.0,-100.00,SSW,206,5.0,9.0,80,0.00,,,0.00,0.000000,,2013-01-16 07:33:00,
2013-01-16 01:42:00,17.0,12.0,-100.00,SSW,206,5.0,9.0,80,0.00,,,0.00,0.000000,,2013-01-16 07:42:00,
2013-01-16 01:52:00,17.0,12.0,-100.00,SSW,206,5.0,9.0,80,0.00,,,0.00,0.000000,,2013-01-16 07:52:00,
2013-01-16 02:02:00,17.0,12.0,-100.00,SSW,206,5.0,9.0,80,0.00,,,0.00,0.000000,,2013-01-16 08:02:00,
2013-01-16 02:12:00,17.0,11.0,-100.00,SSW,210,5.0,8.0,77,0.00,,,0.00,0.000000,,2013-01-16 08:12:00,
2013-01-16 02:33:00,17.0,11.0,-100.00,SSW,210,5.0,8.0,77,0.00,,,0.00,0.000000,,2013-01-16 08:33:00,
2013-01-16 02:42:00,17.0,11.0,-100.00,SSW,210,5.0,8.0,77,0.00,,,0.00,0.000000,,2013-01-16 08:42:00,
2013-01-16 02:53:00,17.0,11.0,-100.00,SSW,210,5.0,8.0,77,0.00,,,0.00,0.000000,,2013-01-16 08:53:00,
2013-01-16 03:02:00,17.0,11.0,-100.00,SSW,210,5.0,8.0,77,0.00,,,0.00,0.000000,,2013-01-16 09:02:00,
2013-01-16 03:12:00,17.0,10.0,-100.00,SSW,195,7.0,11.0,74,0.00,,,0.00,0.000000,,2013-01-16 09:12:00,
2013-01-16 03:33:00,17.0,10.0,-100.00,SSW,195,7.0,11.0,74,0.00,,,0.00,0.000000,,2013-01-16 09:33:00,
2013-01-16 03:43:00,17.0,10.0,-100.00,SSW,195,7.0,11.0,74,0.00,,,0.00,0.000000,,2013-01-16 09:43:00,
2013-01-16 03:53:00,17.0,10.0,-100.00,SSW,195,7.0,11.0,74,0.00,,,0.00,0.000000,,2013-01-16 09:53:00,
2013-01-16 04:02:00,17.0,10.0,-100.00,SSW,195,7.0,11.0,74,0.00,,,0.00,0.000000,,2013-01-16 10:02:00,
2013-01-16 04:12:00,18.0,10.0,-100.00,SSW,205,5.0,13.0,69,0.00,,,0.00,0.000000,,2013-01-16 10:12:00,
2013-01-16 04:43:00,18.0,10.0,-100.00,SSW,205,5.0,13.0,69,0.00,,,0.00,0.000000,,2013-01-16 10:43:00,
2013-01-16 04:53:00,18.0,10.0,-100.00,SSW,205,5.0,13.0,69,0.00,,,0.00,0.000000,,2013-01-16 10:53:00,
2013-01-16 05:02:00,18.0,10.0,-100.00,SSW,205,5.0,13.0,69,0.00,,,0.00,0.000000,,2013-01-16 11:02:00,
2013-01-16 05:12:00,18.0,9.0,-100.00,SSW,194,7.0,12.0,68,0.00,,,0.00,0.000000,,2013-01-16 11:12:00,
2013-01-16 05:33:00,18.0,9.0,-100.00,SSW,194,7.0,12.0,68,0.00,,,0.00,0.000000,,2013-01-16 11:33:00,
2013-01-16 05:43:00,18.0,9.0,-100.00,SSW,194,7.0,12.0,68,0.00,,,0.00,0.000000,,2013-01-16 11:43:00,
2013-01-16 05:53:00,18.0,9.0,-100.00,SSW,194,7.0,12.0,68,0.00,,,0.00,0.000000,,2013-01-16 11:53:00,
2013-01-16 06:03:00,18.0,9.0,-100.00,SSW,194,7.0,12.0,68,0.00,,,0.00,0.000000,,2013-01-16 12:03:00,
2013-01-16 06:12:00,20.0,11.0,-100.00,SSW,199,9.0,16.0,66,0.00,,,0.00,0.000000,,2013-01-16 12:12:00,
2013-01-16 06:33:00,20.0,11.0,-100.00,SSW,199,9.0,16.0,66,0.00,,,0.00,0.000000,,2013-01-16 12:33:00,
2013-01-16 06:43:00,20.0,11.0,-100.00,SSW,199,9.0,16.0,66,0.00,,,0.00,0.000000,,2013-01-16 12:43:00,
2013-01-16 06:53:00,20.0,11.0,-100.00,SSW,199,9.0,16.0,66,0.00,,,0.00,0.000000,,2013-01-16 12:53:00,
2013-01-16 07:03:00,20.0,11.0,-100.00,SSW,199,9.0,16.0,66,0.00,,,0.00,0.000000,,2013-01-16 13:03:00,
2013-01-16 07:12:00,21.0,11.0,-100.00,SSW,200,9.0,15.0,65,0.00,,,0.00,0.000000,,2013-01-16 13:12:00,
2013-01-16 07:33:00,21.0,11.0,-100.00,SSW,200,9.0,15.0,65,0.00,,,0.00,0.000000,,2013-01-16 13:33:00,
2013-01-16 07:43:00,21.0,11.0,-100.00,SSW,200,9.0,15.0,65,0.00,,,0.00,0.000000,,2013-01-16 13:43:00,
2013-01-16 07:53:00,21.0,11.0,-100.00,SSW,200,9.0,15.0,65,0.00,,,0.00,0.000000,,2013-01-16 13:53:00,
2013-01-16 08:03:00,21.0,11.0,-100.00,SSW,200,9.0,15.0,65,0.00,,,0.00,0.000000,,2013-01-16 14:03:00,
2013-01-16 08:12:00,23.0,13.0,-100.00,SSW,205,9.0,18.0,66,0.00,,,0.00,7.000000,,2013-01-16 14:12:00,
2013-01-16 08:33:00,23.0,13.0,-100.00,SSW,205,9.0,18.0,66,0.00,,,0.00,7.000000,,2013-01-16 14:33:00,
2013-01-16 08:43:00,23.0,13.0,-100.00,SSW,205,9.0,18.0,66,0.00,,,0.00,7.000000,,2013-01-16 14:43:00,
2013-01-16 08:53:00,23.0,13.0,-100.00,SSW,205,9.0,18.0,66,0.00,,,0.00,7.000000,,2013-01-16 14:53:00,
2013-01-16 09:03:00,23.0,13.0,-100.00,SSW,205,9.0,18.0,66,0.00,,,0.00,7.000000,,2013-01-16 15:03:00,
2013-01-16 09:12:00,26.0,16.0,-100.00,SW,221,10.0,19.0,64,0.00,,,0.00,27.000000,,2013-01-16 15:12:00,
2013-01-16 09:43:00,26.0,16.0,-100.00,SW,221,10.0,19.0,64,0.00,,,0.00,27.000000,,2013-01-16 15:43:00,
2013-01-16 09:53:00,26.0,16.0,-100.00,SW,221,10.0,19.0,64,0.00,,,0.00,27.000000,,2013-01-16 15:53:00,
2013-01-16 10:03:00,26.0,16.0,-100.00,SW,221,10.0,19.0,64,0.00,,,0.00,27.000000,,2013-01-16 16:03:00,
2013-01-16 10:12:00,27.0,18.0,-100.00,SW,225,8.0,19.0,68,0.00,,,0.00,81.000000,,2013-01-16 16:12:00,
2013-01-16 10:33:00,27.0,18.0,-100.00,SW,225,8.0,19.0,68,0.00,,,0.00,81.000000,,2013-01-16 16:33:00,
2013-01-16 10:43:00,27.0,18.0,-100.00,SW,225,8.0,19.0,68,0.00,,,0.00,81.000000,,2013-01-16 16:43:00,
2013-01-16 10:53:00,27.0,18.0,-100.00,SW,225,8.0,19.0,68,0.00,,,0.00,81.000000,,2013-01-16 16:53:00,
2013-01-16 11:03:00,27.0,18.0,-100.00,SW,225,8.0,19.0,68,0.00,,,0.00,81.000000,,2013-01-16 17:03:00,
2013-01-16 11:12:00,29.0,21.0,-100.00,WSW,242,9.0,16.0,71,0.00,,,0.00,105.000000,,2013-01-16 17:12:00,
2013-01-16 11:33:00,29.0,21.0,-100.00,WSW,242,9.0,16.0,71,0.00,,,0.00,105.000000,,2013-01-16 17:33:00,
2013-01-16 11:44:00,29.0,21.0,-100.00,WSW,242,9.0,16.0,71,0.00,,,0.00,105.000000,,2013-01-16 17:44:00,
2013-01-16 11:53:00,29.0,21.0,-100.00,WSW,242,9.0,16.0,71,0.00,,,0.00,105.000000,,2013-01-16 17:53:00,
2013-01-16 12:03:00,29.0,21.0,-100.00,WSW,242,9.0,16.0,71,0.00,,,0.00,105.000000,,2013-01-16 18:03:00,
2013-01-16 12:12:00,30.0,24.0,-100.00,WSW,246,8.0,18.0,77,0.00,,,0.00,117.000000,,2013-01-16 18:12:00,
2013-01-16 12:33:00,30.0,24.0,-100.00,WSW,246,8.0,18.0,77,0.00,,,0.00,117.000000,,2013-01-16 18:33:00,
2013-01-16 12:43:00,30.0,24.0,-100.00,WSW,246,8.0,18.0,77,0.00,,,0.00,117.000000,,2013-01-16 18:43:00,
2013-01-16 12:53:00,30.0,24.0,-100.00,WSW,246,8.0,18.0,77,0.00,,,0.00,117.000000,,2013-01-16 18:53:00,
2013-01-16 13:03:00,30.0,24.0,-100.00,WSW,246,8.0,18.0,77,0.00,,,0.00,117.000000,,2013-01-16 19:03:00,
2013-01-16 13:12:00,31.0,25.0,-100.00,WSW,247,8.0,16.0,78,0.00,,,0.00,104.000000,,2013-01-16 19:12:00,
2013-01-16 13:33:00,31.0,25.0,-100.00,WSW,247,8.0,16.0,78,0.00,,,0.00,104.000000,,2013-01-16 19:33:00,
2013-01-16 13:43:00,31.0,25.0,-100.00,WSW,247,8.0,16.0,78,0.00,,,0.00,104.000000,,2013-01-16 19:43:00,
2013-01-16 13:53:00,31.0,25.0,-100.00,WSW,247,8.0,16.0,78,0.00,,,0.00,104.000000,,2013-01-16 19:53:00,
2013-01-16 14:03:00,31.0,25.0,-100.00,WSW,247,8.0,16.0,78,0.00,,,0.00,104.000000,,2013-01-16 20:03:00,
2013-01-16 14:12:00,31.0,26.0,-100.00,West,266,8.0,16.0,80,0.00,,,0.00,76.000000,,2013-01-16 20:12:00,
2013-01-16 14:43:00,31.0,26.0,-100.00,West,266,8.0,16.0,80,0.00,,,0.00,76.000000,,2013-01-16 20:43:00,
2013-01-16 14:53:00,31.0,26.0,-100.00,West,266,8.0,16.0,80,0.00,,,0.00,76.000000,,2013-01-16 20:53:00,
2013-01-16 15:03:00,31.0,26.0,-100.00,West,266,8.0,16.0,80,0.00,,,0.00,76.000000,,2013-01-16 21:03:00,
2013-01-16 15:12:00,31.0,27.0,-100.00,WSW,253,7.0,16.0,84,0.00,,,-99.99,47.000000,,2013-01-16 21:12:00,
2013-01-16 15:43:00,31.0,27.0,-100.00,WSW,253,7.0,16.0,84,0.00,,,-99.99,47.000000,,2013-01-16 21:43:00,
2013-01-16 15:53:00,31.0,27.0,-100.00,WSW,253,7.0,16.0,84,0.00,,,-99.99,47.000000,,2013-01-16 21:53:00,
2013-01-16 16:03:00,31.0,27.0,-100.00,WSW,253,7.0,16.0,84,0.00,,,-99.99,47.000000,,2013-01-16 22:03:00,
2013-01-16 16:12:00,31.0,28.0,-100.00,SW,235,5.0,12.0,88,0.00,,,0.00,20.000000,,2013-01-16 22:12:00,
2013-01-16 16:43:00,31.0,28.0,-100.00,SW,235,5.0,12.0,88,0.00,,,0.00,20.000000,,2013-01-16 22:43:00,
2013-01-16 16:53:00,31.0,28.0,-100.00,SW,235,5.0,12.0,88,0.00,,,0.00,20.000000,,2013-01-16 22:53:00,
2013-01-16 17:03:00,31.0,28.0,-100.00,SW,235,5.0,12.0,88,0.00,,,0.00,20.000000,,2013-01-16 23:03:00,
2013-01-16 17:12:00,31.0,30.0,-100.00,SW,228,3.0,9.0,95,0.00,,,0.00,3.000000,,2013-01-16 23:12:00,
2013-01-16 17:33:00,31.0,30.0,-100.00,SW,228,3.0,9.0,95,0.00,,,0.00,3.000000,,2013-01-16 23:33:00,
2013-01-16 17:43:00,31.0,30.0,-100.00,SW,228,3.0,9.0,95,0.00,,,0.00,3.000000,,2013-01-16 23:43:00,
2013-01-16 17:53:00,31.0,30.0,-100.00,SW,228,3.0,9.0,95,0.00,,,0.00,3.000000,,2013-01-16 23:53:00,
2013-01-16 18:02:00,31.0,30.0,-100.00,SW,228,3.0,9.0,95,0.00,,,0.00,3.000000,,2013-01-17 00:02:00,
2013-01-16 18:12:00,31.0,31.0,-100.00,West,259,4.0,8.0,100,0.00,,,0.00,0.000000,,2013-01-17 00:12:00,
2013-01-16 18:33:00,31.0,31.0,-100.00,West,259,4.0,8.0,100,0.00,,,0.00,0.000000,,2013-01-17 00:33:00,
2013-01-16 18:42:00,31.0,31.0,-100.00,West,259,4.0,8.0,100,0.00,,,0.00,0.000000,,2013-01-17 00:42:00,
2013-01-16 18:52:00,31.0,31.0,-100.00,West,259,4.0,8.0,100,0.00,,,0.00,0.000000,,2013-01-17 00:52:00,
2013-01-16 19:02:00,31.0,31.0,-100.00,West,259,4.0,8.0,100,0.00,,,0.00,0.000000,,2013-01-17 01:02:00,
2013-01-16 19:12:00,31.0,31.0,-100.00,West,265,5.0,9.0,100,0.00,,,0.00,0.000000,,2013-01-17 01:12:00,
2013-01-16 19:33:00,31.0,31.0,-100.00,West,265,5.0,9.0,100,0.00,,,0.00,0.000000,,2013-01-17 01:33:00,
2013-01-16 19:43:00,31.0,31.0,-100.00,West,265,5.0,9.0,100,0.00,,,0.00,0.000000,,2013-01-17 01:43:00,
2013-01-16 19:52:00,31.0,31.0,-100.00,West,265,5.0,9.0,100,0.00,,,0.00,0.000000,,2013-01-17 01:52:00,
2013-01-16 20:02:00,31.0,31.0,-100.00,West,265,5.0,9.0,100,0.00,,,0.00,0.000000,,2013-01-17 02:02:00,
2013-01-16 20:12:00,31.0,26.0,-100.00,NW,305,12.0,20.0,82,0.00,,,0.00,0.000000,,2013-01-17 02:12:00,
2013-01-16 20:32:00,31.0,26.0,-100.00,NW,305,12.0,20.0,82,0.00,,,0.00,0.000000,,2013-01-17 02:32:00,
2013-01-16 20:43:00,31.0,26.0,-100.00,NW,305,12.0,20.0,82,0.00,,,0.00,0.000000,,2013-01-17 02:43:00,
2013-01-16 20:52:00,31.0,26.0,-100.00,NW,305,12.0,20.0,82,0.00,,,0.00,0.000000,,2013-01-17 02:52:00,
2013-01-16 21:03:00,31.0,26.0,-100.00,NW,305,12.0,20.0,82,0.00,,,0.00,0.000000,,2013-01-17 03:03:00,
2013-01-16 21:12:00,28.0,17.0,-100.00,WNW,300,7.0,15.0,62,0.00,,,0.00,0.000000,,2013-01-17 03:12:00,
2013-01-16 21:33:00,28.0,17.0,-100.00,WNW,300,7.0,15.0,62,0.00,,,0.00,0.000000,,2013-01-17 03:33:00,
2013-01-16 21:43:00,28.0,17.0,-100.00,WNW,300,7.0,15.0,62,0.00,,,0.00,0.000000,,2013-01-17 03:43:00,
2013-01-16 21:53:00,28.0,17.0,-100.00,WNW,300,7.0,15.0,62,0.00,,,0.00,0.000000,,2013-01-17 03:53:00,
2013-01-16 22:02:00,28.0,17.0,-100.00,WNW,300,7.0,15.0,62,0.00,,,0.00,0.000000,,2013-01-17 04:02:00,
2013-01-16 22:12:00,26.0,11.0,-100.00,NNW,328,10.0,17.0,52,0.00,,,0.00,0.000000,,2013-01-17 04:12:00,
2013-01-16 22:33:00,26.0,11.0,-100.00,NNW,328,10.0,17.0,52,0.00,,,0.00,0.000000,,2013-01-17 04:33:00,
2013-01-16 22:43:00,26.0,11.0,-100.00,NNW,328,10.0,17.0,52,0.00,,,0.00,0.000000,,2013-01-17 04:43:00,
2013-01-16 22:52:00,26.0,11.0,-100.00,NNW,328,10.0,17.0,52,0.00,,,0.00,0.000000,,2013-01-17 04:52:00,
2013-01-16 23:04:00,26.0,11.0,-100.00,NNW,328,10.0,17.0,52,0.00,,,0.00,0.000000,,2013-01-17 05:04:00,
2013-01-16 23:12:00,23.0,8.0,-100.00,NW,309,6.0,15.0,53,0.00,,,0.00,0.000000,,2013-01-17 05:12:00,
2013-01-16 23:33:00,23.0,8.0,-100.00,NW,309,6.0,15.0,53,0.00,,,0.00,0.000000,,2013-01-17 05:33:00,
2013-01-16 23:43:00,23.0,8.0,-100.00,NW,309,6.0,15.0,53,0.00,,,0.00,0.000000,,2013-01-17 05:43:00,
2013-01-16 23:53:00,23.0,8.0,-100.00,NW,309,6.0,15.0,53,0.00,,,0.00,0.000000,,2013-01-17 05:53:00,